OneWeb SL0560

operational
NORAD ID: 55145 Int'l Des: 2023-004 Owner: ONEWEBN Country: UK Constellation: oneweb
LEOCIRCULARPOLARONEWEB_TYPE

About OneWeb SL0560

Description loading...

Live Position

Loading 3D Globe...

Upcoming Passes

Altitude History

Altitude vs Time

uPlot chart will show altitude changes over time

Two-Line Element Set

1 55145U 23004F 25352.56456198 .00000036 00000-0 59551-4 0 9998
2 55145 87.9169 11.3435 0001748 84.6659 275.4673 13.18685942145907
Epoch: Dec 18, 2025 • Age: 11 hours

Current Status

Altitude 1201.8 km
Velocity 7.26 km/s
Sub-Earth Point 78.81°N, 78.02°E
Launch Date Jan 10, 2023
Age 2.9 years
Type internet

Technical Details

Classification Payload
Mass 148.00 kg
Dry Mass 140.00 kg
Total Mass 148.00 kg
Length 1.30 m
Diameter 1.00 m
Span 5.00 m
Shape Trapezoid+2 pan
Manufacturer ONEWUS
Bus Type ARROW
Phase Status In Orbit
Owner/State ONEWEBN/UK

Large Constellations

Loading constellations...